• In Hungary
  • List of Countries
  • For 7 days
  • Water Temperature
  • Satellite Maps
  • Weather Map
  • News
  • Weather Widgets
  • user-avatar
    Login

    Hourly Weather Kim

    Today, 22 July, Sunday

    Time Temperature Precipitation Wind Pressure Humidity
    00:00 +20°C° 0 mm 3 mps 739 mmHg 93%
    01:00 +19°C° 0 mm 3 mps 739 mmHg 94%
    02:00 +19°C° 0 mm 3 mps 739 mmHg 95%
    03:00 +19°C° 0 mm 3 mps 739 mmHg 96%
    04:00 +19°C° 0 mm 3 mps 739 mmHg 96%
    05:00 +19°C° 0 mm 3 mps 740 mmHg 95%
    06:00 +19°C° 0 mm 3 mps 740 mmHg 95%
    07:00 +20°C° 0.1 mm 4 mps 740 mmHg 92%
    08:00 +21°C° 0.1 mm 4 mps 740 mmHg 88%
    09:00 +22°C° 0.1 mm 4 mps 740 mmHg 85%
    10:00 +23°C° 0.6 mm 5 mps 740 mmHg 82%
    11:00 +23°C° 0.6 mm 5 mps 740 mmHg 80%
    12:00 +24°C° 0.6 mm 6 mps 740 mmHg 78%
    13:00 +24°C° 0.6 mm 6 mps 740 mmHg 77%
    14:00 +24°C° 0.6 mm 6 mps 740 mmHg 77%
    15:00 +24°C° 0.6 mm 6 mps 740 mmHg 77%
    16:00 +23°C° 0.4 mm 6 mps 740 mmHg 79%
    17:00 +22°C° 0.4 mm 6 mps 740 mmHg 82%
    18:00 +21°C° 0.4 mm 6 mps 740 mmHg 84%
    19:00 +21°C° 0 mm 6 mps 740 mmHg 85%
    20:00 +20°C° 0 mm 5 mps 740 mmHg 86%
    21:00 +19°C° 0 mm 5 mps 740 mmHg 88%
    22:00 +19°C° 0.1 mm 5 mps 740 mmHg 88%
    23:00 +19°C° 0.1 mm 5 mps 740 mmHg 88%

    Tomorrow, 23 July, Monday

    Time Temperature Precipitation Wind Pressure Humidity
    00:00 +19°C° 0.1 mm 5 mps 740 mmHg 88%
    01:00 +17°C° 0.1 mm 5 mps 740 mmHg 88%
    02:00 +17°C° 0.1 mm 5 mps 740 mmHg 89%
    03:00 +17°C° 0.1 mm 5 mps 740 mmHg 89%
    04:00 +17°C° 0.1 mm 5 mps 740 mmHg 90%
    05:00 +17°C° 0.1 mm 5 mps 740 mmHg 90%
    06:00 +16°C° 0.1 mm 5 mps 740 mmHg 90%
    07:00 +18°C° 0 mm 4 mps 740 mmHg 89%
    08:00 +19°C° 0 mm 4 mps 740 mmHg 87%
    09:00 +19°C° 0 mm 4 mps 741 mmHg 85%
    10:00 +21°C° 0.1 mm 4 mps 741 mmHg 82%
    11:00 +22°C° 0.1 mm 4 mps 741 mmHg 79%
    12:00 +25°C° 0.1 mm 5 mps 741 mmHg 75%
    13:00 +25°C° 0.8 mm 5 mps 741 mmHg 75%
    14:00 +25°C° 0.8 mm 5 mps 741 mmHg 76%
    15:00 +26°C° 0.8 mm 5 mps 740 mmHg 76%
    16:00 +25°C° 0.9 mm 4 mps 740 mmHg 78%
    17:00 +25°C° 0.9 mm 4 mps 740 mmHg 81%
    18:00 +25°C° 0.9 mm 3 mps 740 mmHg 83%
    19:00 +24°C° 0.6 mm 3 mps 741 mmHg 85%
    20:00 +22°C° 0.6 mm 3 mps 741 mmHg 88%
    21:00 +21°C° 0.6 mm 3 mps 741 mmHg 90%
    22:00 +20°C° 0.6 mm 3 mps 741 mmHg 92%
    23:00 +20°C° 0.6 mm 3 mps 741 mmHg 93%

    Day after tomorrow, 24 July, Tuesday

    Time Temperature Precipitation Wind Pressure Humidity
    00:00 +20°C° 0.6 mm 4 mps 742 mmHg 95%
    01:00 +20°C° 0 mm 3 mps 742 mmHg 95%
    02:00 +19°C° 0 mm 3 mps 742 mmHg 95%
    03:00 +19°C° 0 mm 3 mps 742 mmHg 96%
    04:00 +19°C° 0 mm 3 mps 742 mmHg 95%
    05:00 +19°C° 0 mm 3 mps 742 mmHg 95%
    06:00 +20°C° 0 mm 3 mps 742 mmHg 94%
    07:00 +21°C° 0.1 mm 3 mps 743 mmHg 91%
    08:00 +22°C° 0.1 mm 4 mps 743 mmHg 88%
    09:00 +23°C° 0.1 mm 4 mps 743 mmHg 84%
    10:00 +25°C° 0.8 mm 4 mps 743 mmHg 80%
    11:00 +26°C° 0.8 mm 4 mps 743 mmHg 75%
    12:00 +27°C° 0.8 mm 4 mps 744 mmHg 70%
    13:00 +27°C° 1 mm 5 mps 744 mmHg 72%
    14:00 +27°C° 1 mm 5 mps 744 mmHg 74%
    15:00 +27°C° 1 mm 5 mps 744 mmHg 76%
    16:00 +25°C° 1.3 mm 5 mps 744 mmHg 80%
    17:00 +23°C° 1.3 mm 5 mps 744 mmHg 84%
    18:00 +22°C° 1.3 mm 4 mps 745 mmHg 88%
    19:00 +21°C° 0 mm 4 mps 745 mmHg 87%
    20:00 +20°C° 0 mm 4 mps 745 mmHg 86%
    21:00 +19°C° 0 mm 4 mps 745 mmHg 85%
    22:00 +19°C° 0 mm 4 mps 745 mmHg 85%
    23:00 +19°C° 0 mm 4 mps 745 mmHg 85%

    25 July, Wednesday

    Time Temperature Precipitation Wind Pressure Humidity
    00:00 +19°C° 0 mm 4 mps 745 mmHg 85%
    01:00 +19°C° 0 mm 4 mps 745 mmHg 83%
    02:00 +18°C° 0 mm 4 mps 745 mmHg 81%
    03:00 +17°C° 0 mm 5 mps 745 mmHg 79%
    04:00 +18°C° 0 mm 4 mps 745 mmHg 77%
    05:00 +18°C° 0 mm 4 mps 746 mmHg 76%
    06:00 +18°C° 0 mm 4 mps 746 mmHg 74%
    07:00 +19°C° 0 mm 4 mps 746 mmHg 72%
    08:00 +20°C° 0 mm 5 mps 747 mmHg 69%
    09:00 +21°C° 0 mm 5 mps 747 mmHg 67%
    10:00 +23°C° 0 mm 5 mps 747 mmHg 63%
    11:00 +24°C° 0 mm 6 mps 747 mmHg 58%
    12:00 +26°C° 0 mm 6 mps 748 mmHg 54%
    13:00 +26°C° 0 mm 6 mps 748 mmHg 55%
    14:00 +26°C° 0 mm 6 mps 748 mmHg 56%
    15:00 +26°C° 0 mm 6 mps 748 mmHg 57%
    16:00 +25°C° 0 mm 5 mps 748 mmHg 60%
    17:00 +25°C° 0 mm 5 mps 748 mmHg 63%
    18:00 +23°C° 0 mm 4 mps 748 mmHg 66%
    19:00 +22°C° 0 mm 4 mps 748 mmHg 69%
    20:00 +21°C° 0 mm 3 mps 748 mmHg 73%
    21:00 +20°C° 0 mm 3 mps 748 mmHg 76%
    22:00 +19°C° 0 mm 3 mps 748 mmHg 80%
    23:00 +19°C° 0 mm 3 mps 748 mmHg 84%

    26 July, Thursday

    Time Temperature Precipitation Wind Pressure Humidity
    00:00 +18°C° 0 mm 3 mps 748 mmHg 89%
    01:00 +18°C° 0 mm 3 mps 748 mmHg 89%
    02:00 +18°C° 0 mm 3 mps 748 mmHg 90%
    03:00 +18°C° 0 mm 3 mps 747 mmHg 91%
    04:00 +18°C° 0 mm 3 mps 748 mmHg 88%
    05:00 +18°C° 0 mm 3 mps 748 mmHg 85%
    06:00 +19°C° 0 mm 4 mps 748 mmHg 83%
    07:00 +20°C° 0 mm 4 mps 748 mmHg 78%
    08:00 +22°C° 0 mm 4 mps 748 mmHg 73%
    09:00 +25°C° 0 mm 5 mps 748 mmHg 68%
    10:00 +26°C° 0 mm 5 mps 748 mmHg 64%
    11:00 +28°C° 0 mm 5 mps 749 mmHg 61%
    12:00 +29°C° 0 mm 5 mps 749 mmHg 58%
    13:00 +30°C° 0 mm 5 mps 749 mmHg 56%
    14:00 +32°C° 0 mm 5 mps 749 mmHg 55%
    15:00 +32°C° 0 mm 5 mps 749 mmHg 54%
    16:00 +32°C° 0 mm 5 mps 749 mmHg 58%
    17:00 +30°C° 0 mm 4 mps 749 mmHg 62%
    18:00 +29°C° 0 mm 4 mps 749 mmHg 66%
    19:00 +28°C° 0 mm 4 mps 750 mmHg 69%
    20:00 +27°C° 0 mm 4 mps 750 mmHg 71%
    21:00 +26°C° 0 mm 4 mps 750 mmHg 74%
    22:00 +25°C° 0 mm 4 mps 750 mmHg 75%
    23:00 +23°C° 0 mm 4 mps 750 mmHg 75%

    27 July, Friday

    Time Temperature Precipitation Wind Pressure Humidity
    00:00 +23°C° 0 mm 4 mps 751 mmHg 76%
    01:00 +22°C° 0 mm 4 mps 751 mmHg 76%
    02:00 +21°C° 0 mm 3 mps 751 mmHg 77%
    03:00 +21°C° 0 mm 3 mps 751 mmHg 78%
    04:00 +20°C° 0 mm 3 mps 752 mmHg 79%
    05:00 +20°C° 0 mm 3 mps 752 mmHg 79%
    06:00 +20°C° 0 mm 3 mps 752 mmHg 80%
    07:00 +22°C° 0 mm 4 mps 752 mmHg 77%
    08:00 +25°C° 0 mm 4 mps 752 mmHg 73%
    09:00 +26°C° 0 mm 4 mps 753 mmHg 69%
    10:00 +27°C° 0 mm 4 mps 753 mmHg 63%
    11:00 +29°C° 0 mm 5 mps 753 mmHg 58%
    12:00 +30°C° 0 mm 5 mps 753 mmHg 53%
    13:00 +30°C° 0 mm 5 mps 753 mmHg 52%
    14:00 +30°C° 0 mm 5 mps 753 mmHg 52%
    15:00 +30°C° 0 mm 5 mps 753 mmHg 51%
    16:00 +30°C° 0 mm 4 mps 753 mmHg 55%
    17:00 +29°C° 0 mm 3 mps 752 mmHg 60%
    18:00 +29°C° 0 mm 3 mps 752 mmHg 64%
    19:00 +27°C° 0 mm 3 mps 752 mmHg 68%
    20:00 +25°C° 0 mm 3 mps 753 mmHg 72%
    21:00 +24°C° 0 mm 3 mps 753 mmHg 75%
    22:00 +22°C° 0 mm 3 mps 753 mmHg 78%
    23:00 +21°C° 0 mm 3 mps 753 mmHg 81%
    Show more